Etusivu
METAR-TAF:

METAR-TAF

Lentoasemat :

Vereeniging, Etelä-Afrikka

Leveyspiiri: 26-34-29S, Pituuspiiri: 027-57-45E, korkeus merenpinnasta: 1483 m

Tämänhetkinen sää

Tämä raportti tehtiin 1 tunti ja 3 minuuttia sitten, kello 21.00 UTC
Tuuli 4 kn luoteesta
Lämpötila 9°C
Kosteus 25%
Ilmanpaine 1026 hPa

METAR: FAVV 132100Z AUTO 32004KT //// // ////// 09/M10 Q1026

Aika: 00:03 (22:03 UTC)


TAF: puuttuu

Säähavainnot ja -ennusteet yli 4000 lentoasemalta (METAR- ja TAF-raportit).

Käytössä olevat sääasemat on merkitty karttaan keltaisilla ja punaisilla pisteillä.

Aseta hiiri pisteen päälle nähdäksesi sääaseman nimen.

Klikkaa sitten nähdäksesi säähavainnot ja -ennusteet.

Kartan vaihtaminen: klikkaa mustalla rastilla varustettuja vihreitä pisteitä, niin voit zoomata sisään; viivalla varustettua vihreää pistettä, niin voit zoomata ulos tai vihreitä nuolia, niin pääset viereisille kartoille.


METAR-TAF: